Weather in Kirteli

Russia / Republic of Tatarstan     54°44′29″N   48°37′32″E
temp.,
°C
wind,
m/s
gust,
m/s
humid.,
%
clouds,
%
prec.,
mm/h
press.,
hPa
HPBL,
m
11 may, tue
tue1100:00+14nne347292 0.0 102057
03:00+12ne3778100 0.0 102295
06:00+14ne237070 0.0 102374
09:00+20ene224960 0.0 1024435
12:00+22ene2346100 0.0 1025898
15:00+22ene3452100 0.0 1025900
18:00+19nne35628 0.0 102590
21:00+17ene226310 0.1 102634
12 may, wed
wed1200:00+16wsw006575 0.0 102611
03:00+14ne2275100 0.0 102625
06:00+16e237115 0.0 1027110
09:00+20se355254 0.0 1027608
12:00+22s674473 0.0 10271720
15:00+20sse5842100 0.0 1027620
18:00+17s0162100 0.0 102719
21:00+16se226295 0.0 102721
13 may, thu
thu1300:00+15ese226561 0.0 102733
03:00+13e227025 0.0 102623
06:00+15e387037 0.0 1026216
09:00+19ese5850100 0.0 1026609
12:00+21sse6843100 0.0 10251076
15:00+22ese374766 0.1 1024966
18:00+20ese51152100 0.0 1023346
21:00+16se3126219 0.0 1023215
14 may, fri
fri1400:00+14se3373100 0.1 102328
03:00+13ese22745 0.3 102327
06:00+15se310696 0.0 1023255
09:00+19s475310 0.0 1023351
12:00+23s574712 0.0 1022599
15:00+25sse594175 0.0 1022958
18:00+21sse4125367 0.0 1021286
21:00+17s4126349 0.0 1021177
15 may, sat
sat1500:00+15sse386435 0.0 1021116
03:00+14sse35653 0.0 102281
06:00+15sse38635 0.0 1021162
09:00+20s584811 0.0 1021306
12:00+24s69390 0.0 1020642
15:00+25sse59380 0.0 10191083
18:00+21sse37570 0.0 1018147
21:00+17sse36640 0.0 101876